Terminal Aerodrome Forecast
Issued by NWS

Home | Current Version | Previous Version | Text Only | Print | Product List | Glossary On
Versions: 1 2 3 4 5 6 7 8 9 10 11 12 13 14 15 16 17 18 19 20 21 22 23 24 25 26 27 28 29 30 31 32 33 34 35 36 37 38 39 40 41 42 43 44 45 46 47 48 49 50
000
FTUS46 KPQR 012320
TAFONP
TAF
KONP 012320Z 0200/0224 35011KT 5SM BR BKN003 OVC006
     FM020400 36003KT 4SM BR BKN003 OVC008
     FM021700 34011KT P6SM SCT008 BKN012
     FM022000 34012G18KT P6SM FEW015=

USA.gov is the U.S. government's official web portal to all federal, state and local government web resources and services.